EW8167 Weather Reports


time (UTC)temp
F
wind
direction
speed
knots
gust
knots
rain 1hr
in
rain 24hr
in
rain mn
in
humidity
%
barometer
mb
20260506041538 58 144 0.9 5.2 0.00 0.00 0.00 76 1017.9
20260506040140 58 145 0.9 5.2 0.00 0.00 0.00 77 1017.8
20260506034536 58 138 1.7 3.5 0.00 0.00 0.00 77 1017.6
20260506033034 59 118 1.7 3.5 0.00 0.00 0.00 76 1017.2
20260506031540 59 160 0.9 2.6 0.00 0.00 0.00 76 1017.1
20260506030132 59 167 1.7 3.5 0.00 0.00 0.00 76 1016.9
20260506024552 59 152 1.7 5.2 0.00 0.00 0.00 76 1016.7
20260506023104 60 217 1.7 4.3 0.00 0.00 0.00 75 1016.7
20260506021610 60 232 2.6 5.2 0.00 0.00 0.00 75 1016.6
20260506020150 60 186 0.9 4.3 0.00 0.00 0.00 74 1016.6
20260506014547 61 219 0.9 4.3 0.00 0.00 0.00 74 1016.6
20260506013057 61 169 0.9 3.5 0.00 0.00 0.00 74 1016.6
20260506011601 61 196 2.6 7.0 0.00 0.00 0.00 73 1016.5
20260506010145 61 303 0.9 2.6 0.00 0.00 0.00 72 1016.5
20260506004543 60 178 0.0 4.3 0.00 0.00 0.00 73 1016.5
20260506003043 60 201 1.7 7.0 0.00 0.00 0.00 74 1016.5
20260506001546 61 240 2.6 7.0 0.00 0.00 0.00 73 1016.4
20260506000141 62 244 4.3 7.8 0.00 0.00 0.00 68 1016.3
20260505234539 64 103 0.0 3.5 0.00 0.00 0.00 64 1016.3
20260505233039 64 355 0.9 4.3 0.00 0.00 0.00 64 1016.3
20260505231549 63 331 0.9 5.2 0.00 0.00 0.00 64 1016.3
20260505230137 63 5 2.6 7.0 0.00 0.00 0.00 64 1016.4
20260505224536 64 360 2.6 6.1 0.00 0.00 0.00 64 1016.4
20260505223035 63 355 1.7 7.0 0.00 0.00 0.00 64 1016.5
20260505221536 63 340 3.5 8.7 0.00 0.00 0.00 63 1016.7
20260505220134 64 5 5.2 8.7 0.00 0.00 0.00 62 1016.7
20260505214559 65 341 0.0 7.8 0.00 0.00 0.00 62 1016.6
20260505213052 64 5 2.6 5.2 0.00 0.00 0.00 63 1016.7
20260505211550 63 51 2.6 8.7 0.00 0.00 0.00 64 1016.9
20260505210150 63 342 4.3 8.7 0.00 0.00 0.00 64 1016.9
20260505204551 63 307 0.9 7.8 0.00 0.00 0.00 65 1016.9
20260505203106 62 355 3.5 8.7 0.00 0.00 0.00 65 1017.0
20260505201554 62 355 4.3 8.7 0.00 0.00 0.00 65 1017.0
20260505200145 62 323 3.5 11.3 0.00 0.00 0.00 68 1017.0
20260505194551 61 348 2.6 7.8 0.00 0.00 0.00 68 1017.2
20260505193051 60 311 5.2 9.6 0.00 0.00 0.00 68 1017.3
20260505191552 60 310 4.3 9.6 0.00 0.00 0.00 68 1017.2
20260505190141 60 360 3.5 7.8 0.00 0.00 0.00 68 1017.2
20260505184547 59 344 2.6 5.2 0.00 0.00 0.00 68 1017.2
20260505183044 59 351 0.9 5.2 0.00 0.00 0.00 69 1017.1
20260505181544 59 15 2.6 5.2 0.00 0.00 0.00 68 1017.1
20260505180137 59 344 0.9 4.3 0.00 0.00 0.00 68 1016.9
20260505174545 59 329 0.9 7.0 0.00 0.00 0.00 69 1016.8
20260505173039 58 311 1.7 4.3 0.00 0.00 0.00 69 1016.6
20260505171535 58 355 1.7 3.5 0.00 0.00 0.00 71 1016.7
20260505170132 57 29 0.0 2.6 0.00 0.00 0.00 73 1016.6
20260505164554 56 328 0.0 1.7 0.00 0.00 0.00 75 1016.7
20260505163052 56 40 0.9 3.5 0.00 0.00 0.00 75 1016.6
20260505161556 55 5 1.7 4.3 0.00 0.00 0.00 75 1016.5
20260505160147 55 19 0.9 3.5 0.00 0.00 0.00 75 1016.3
20260505153056 55 342 1.7 4.3 0.00 0.00 0.00 76 1016.4
20260505151558 54 298 0.9 4.3 0.00 0.00 0.00 77 1016.2
20260505150144 54 355 0.9 5.2 0.00 0.00 0.00 78 1016.1
20260505140140 52 321 0.0 0.0 0.00 0.00 0.00 80 1015.7
20260505130134 52 329 0.0 3.5 0.00 0.00 0.00 77 1015.4
20260505124640 53 355 0.9 2.6 0.00 0.00 0.00 77 1015.5
20260505123037 53 331 0.0 3.5 0.00 0.00 0.00 76 1015.5
20260505121536 53 343 1.7 4.3 0.00 0.00 0.00 75 1015.7
20260505120132 53 9 1.7 3.5 0.00 0.00 0.00 75 1015.7
20260505114551 53 14 1.7 4.3 0.00 0.00 0.00 75 1015.7
20260505113050 53 355 0.9 5.2 0.00 0.00 0.00 75 1015.6
20260505111549 53 351 3.5 7.0 0.00 0.00 0.00 76 1015.5
20260505110146 53 9 1.7 7.0 0.00 0.00 0.00 78 1015.6
20260505101553 54 338 2.6 9.6 0.00 0.00 0.00 78 1015.4
20260505100143 54 341 2.6 7.8 0.00 0.00 0.00 78 1015.4
20260505094543 54 355 2.6 10.4 0.00 0.00 0.00 77 1015.6
20260505093043 54 5 3.5 8.7 0.00 0.00 0.00 77 1015.6
20260505091541 54 10 2.6 7.0 0.00 0.00 0.00 78 1015.7
20260505090138 54 355 3.5 8.7 0.00 0.00 0.00 78 1015.8
20260505084548 55 360 4.3 8.7 0.00 0.00 0.00 78 1015.9
20260505083039 55 5 3.5 7.8 0.00 0.00 0.00 78 1015.8
20260505081543 55 339 0.9 7.8 0.00 0.00 0.00 78 1015.9
20260505080134 55 347 2.6 5.2 0.00 0.00 0.00 78 1016.0
20260505074555 55 329 1.7 5.2 0.00 0.00 0.00 78 1016.1
20260505073057 55 355 1.7 4.3 0.00 0.00 0.00 78 1016.0
20260505071554 56 328 2.6 5.2 0.00 0.00 0.00 78 1015.8
20260505070149 56 339 2.6 4.3 0.00 0.00 0.00 77 1015.7
20260505064547 56 360 1.7 4.3 0.00 0.00 0.00 76 1015.7
20260505063047 56 9 2.6 7.0 0.00 0.00 0.00 76 1015.7
20260505061548 56 12 1.7 4.3 0.00 0.00 0.00 75 1015.6
20260505060145 56 360 1.7 4.3 0.00 0.00 0.00 74 1015.8
20260505054545 57 311 1.7 3.5 0.00 0.00 0.00 73 1015.9
20260505053046 57 5 0.9 2.6 0.00 0.00 0.00 71 1016.1
20260505051542 57 340 1.7 3.5 0.00 0.00 0.00 70 1016.1
20260505050141 57 347 0.9 2.6 0.00 0.00 0.00 68 1016.1